www.pogodaiklimat.ru

Погода и климат >> Архив погоды >> Индонезия >> Баликпапан


ПОГОДА в Баликпапане

  • Прогноз погоды в Баликпапане
  • Монитор погоды в Баликпапане

АРХИВ ПОГОДЫ в Баликпапане

Время (UTC), дата Ветер
(напр.,м/с)
 
Видим.   Явления Облачность Т
(С)
Тd
(С)
f
(%)
Тe
(С)
Тes
(С)
Комфортность P
(гПа)
Po
(гПа)
Тmin
(С)
Tmax
(С)
R
(мм)
R24
(мм)
S
(см)
15 14.07 Ю 4 9000 м 9/3 600 м
[Cu med, cong Ac As Ci fib]
+26.4 +23.3 83 +36 +36 очень
душно
1011.4 1010.7
18 14.07 ЮЗ 5 9000 м 8/3 540 м
[Cu med, cong Ac As Ci fib]
+26.4 +22.8 81 +35 +35 очень
душно
1010.4 1009.7
21 14.07 З 2 9000 м 8/4 600 м
[Cu med, cong Ac As Ci fib]
+24.4 +23.6 95 +33 +33 очень
душно
1009.5 1008.8
00 15.07 ЮЗ 2 10 км 8/5 540 м
[Cu med, cong Ac trans Ci fib]
+25.2 +23.8 92 +34 +36 очень
душно
1011.0 1010.3 +23.9
03 15.07 ЮЗ 4 10 км 8/5 540 м
[Cu med, cong Ac trans Ci fib]
+28.0 +24.5 81 +39 +43 очень
душно
1011.2 1010.5
06 15.07 Ю 5 10 км 6/3 600 м
[Cu med, cong As op Ci fib]
+28.9 +24.4 77 +41 +46 опасность
перегрева
1008.9 1008.3
09 15.07 ЮЗ 2 10 км 5/3 600 м
[Cu hum As trans Ci fib]
+28.4 +22.7 71 +38 +39 очень
душно
1008.1 1007.4
12 15.07 ЮЗ 1 9000 м 6/3 600 м
[Cu hum As trans Ci fib]
+26.8 +23.5 82 +36 +36 очень
душно
1009.7 1009.0 +30.2
15 15.07 ЮЗ 2 9000 м 8/3 600 м
[Cu med, cong Ac As Ci fib]
+26.7 +23.1 81 +36 +36 очень
душно
1011.2 1010.5
18 15.07 ЮЗ 3 9000 м 9/4 540 м
[Cu med, cong Ac As Ci fib]
+27.0 +23.1 79 +36 +36 очень
душно
1010.6 1009.9
21 15.07 З 4 8000 м 9/5 540 м
[Cu med, cong Ac As Ci fib]
+25.0 +24.0 94 +34 +34 очень
душно
1010.4 1009.7
00 16.07 ЮЗ 3 10 км 9/5 540 м
[Cu med, cong Ac As Ci fib]
+26.3 +24.3 89 +37 +38 очень
душно
1011.6 1010.9 +23.9
03 16.07 Ю 6 10 км 9/4 540 м
[Cu med, cong Ac As Ci fib]
+28.0 +24.3 80 +39 +42 очень
душно
1011.3 1010.6
06 16.07 ЮЗ 4 10 км 9/5 540 м
[Cu med, cong Ac As Ci fib]
+28.8 +24.9 79 +41 +44 опасность
перегрева
1009.3 1008.7
09 16.07 Ю 3 10 км 8/4 540 м
[Cu med, cong Ac As Ci fib]
+29.0 +23.8 74 +40 +41 очень
душно
1008.1 1007.4
12 16.07 Ю 4 9000 м 8/4 540 м
[Cu med, cong Ac trans Ci fib]
+27.4 +24.7 85 +39 +39 очень
душно
1009.3 1008.7 +30.3
15 16.07 ЮЗ 3 9000 м 9/4 540 м
[Cu med, cong Ac trans Ci fib]
+27.2 +24.2 84 +38 +38 очень
душно
1010.5 1009.9
18 16.07 ЮЗ 3 9000 м 9/4
[Cb cap Ac As Ci fib]
+26.9 +23.7 83 +37 +37 очень
душно
1009.6 1008.9
21 16.07 ЮЗ 3 9000 м {дождь} 9/4
[Cb cap Ac As Ci fib]
+26.4 +24.2 88 +37 +37 очень
душно
1008.5 1007.8 1
00 17.07 ЮЗ 2 9000 м в посл. час дождь 9/5
[Cb cap Ac As Ci fib]
+25.0 +23.3 90 +33 +35 очень
душно
1010.2 1009.6 +24.4 0.1
03 17.07 ЮЗ 4 10 км {дождь} 9/3 600 м
[Sc Ac As Ci fib]
+28.4 +24.5 79 +40 +44 очень
душно
1009.6 1008.9 0.0
06 17.07 ЮЗ 4 10 км {дождь} 9/4 600 м
[Cu med, cong Ac As Ci fib]
+29.4 +24.5 75 +42 +45 опасность
перегрева
1008.2 1007.6 0.0
09 17.07 ЮЗ 3 10 км 9/3 600 м
[Cu med, cong Ac trans Cc]
+28.7 +24.8 79 +41 +41 опасность
перегрева
1007.3 1006.6
12 17.07 Ю 3 9000 м 9/3 600 м
[Cu med, cong Ac As Cc]
+27.9 +24.2 80 +39 +39 очень
душно
1008.7 1008.0 +29.9
15 17.07 ЮЗ 2 9000 м 9/4 600 м
[Cu med, cong Ac As Ci fib]
+27.3 +24.4 84 +38 +38 очень
душно
1009.5 1008.9
18 17.07 ЮЗ 3 9000 м 9/4 600 м
[Cu med, cong Ac As Ci fib]
+27.3 +24.3 84 +38 +38 очень
душно
1009.2 1008.5
21 17.07 З 3 9000 м 9/5 540 м
[Cu med, cong Ac As Ci fib]
+25.7 +24.6 94 +36 +36 очень
душно
1008.6 1007.9
00 18.07 З 4 10 км 9/4 540 м
[Cu med, cong Ac As Ci fib]
+26.2 +24.5 90 +37 +38 очень
душно
1009.4 1008.7 +24.8
03 18.07 ЮЗ 5 10 км 9/4 540 м
[Cu med, cong Ac As Ci fib]
+28.4 +25.4 84 +42 +45 опасность
перегрева
1009.5 1008.8
06 18.07 ЮЗ 2 10 км 9/4 540 м
[Cu med, cong Ac As Ci fib]
+29.8 +23.6 69 +40 +46 очень
душно
1007.5 1006.9
09 18.07 Ю 3 10 км 9/3 600 м
[Cu med, cong Ac As Ci fib]
+28.3 +25.0 82 +41 +41 опасность
перегрева
1006.5 1005.8
12 18.07 Ю 3 9000 м 9/4 540 м
[Cu med, cong Ac As Ci fib]
+27.3 +25.2 88 +39 +39 очень
душно
1007.8 1007.1 +30.6
15 18.07 Ю 2 9000 м 9/4 540 м
[Cu med, cong Ac As Ci fib]
+27.8 +25.3 86 +40 +40 очень
душно
1009.4 1008.8
18 18.07 штиль 0 9000 м 9/3 600 м
[Cu med, cong Ac As Ci fib]
+26.3 +25.4 95 +38 +38 очень
душно
1008.6 1007.9
21 18.07 штиль 0 9000 м 9/3 600 м
[Cu med, cong Ac As Ci fib]
+25.9 +25.1 95 +37 +37 очень
душно
1007.7 1007.0
00 19.07 З 3 10 км 9/3 600 м
[Cu med, cong Ac As Ci fib]
+26.8 +25.0 90 +39 +40 очень
душно
1009.4 1008.8 +25.0
03 19.07 ЮЗ 2 10 км 9/3 600 м
[Cu med, cong Ac As Ci fib]
+29.4 +25.9 81 +44 +51 опасность
перегрева
1009.3 1008.3
06 19.07 Ю 1 10 км 9/3 600 м
[Cu med, cong Ac As Ci fib]
+30.4 +26.2 78 +46 +53 опасность
перегрева
1007.3 1006.6
09 19.07 В 2 10 км 9/3 600 м
[Cu med, cong Ac As Ci fib]
+28.4 +24.9 81 +41 +41 опасность
перегрева
1006.4 1005.7
12 19.07 штиль 0 9000 м 5/3 600 м
[Cu med, cong As trans Ci fib]
+26.6 +24.8 90 +38 +38 очень
душно
1008.0 1007.3 +31.4
15 19.07 штиль 0 9000 м 8/3 540 м
[Cu med, cong Ac As Ci fib]
+26.4 +24.9 91 +38 +38 очень
душно
1009.9 1009.3
18 19.07 штиль 0 9000 м 8/3 540 м
[Cu med, cong Ac As Ci fib]
+24.8 +24.4 98 +35 +35 очень
душно
1009.2 1008.5
21 19.07 СЗ 1 9000 м 8/3 600 м
[Cu med, cong Ac As Ci fib]
+25.0 +24.6 98 +35 +35 очень
душно
1008.8 1008.1
00 20.07 штиль 0 10 км 6/4 540 м
[Cu med, cong Ac trans Ci fib]
+27.3 +25.4 89 +40 +42 очень
душно
1010.1 1009.5 +24.4
03 20.07 Ю 2 10 км 6/4 540 м
[Cu med, cong As trans Ci fib]
+29.8 +26.2 81 +45 +55 опасность
перегрева
1010.1 1009.5
06 20.07 ЮВ 3 10 км 8/3 540 м
[Cu med, cong Ac trans Ci fib]
+30.7 +26.2 77 +46 +53 опасность
перегрева
1008.2 1007.6
09 20.07 ЮВ 3 10 км 6/4 600 м
[Cu med, cong Ac trans Ci fib]
+29.0 +25.7 82 +43 +44 опасность
перегрева
1007.5 1006.8
12 20.07 штиль 0 9000 м 8/5 540 м
[Cu med, cong Ac trans Ci fib]
+27.0 +25.1 89 +39 +39 очень
душно
1008.6 1008.0 +31.0
15 20.07 ЮЗ 2 9000 м 9/5 540 м
[Cu med, cong Ac As Ci fib]
+27.6 +24.5 83 +39 +39 очень
душно
1009.8 1009.2
18 20.07 ЮЗ 1 10 км 9/4 500 м
[Cu med, cong Ac As Ci fib]
+27.4 +24.9 86 +39 +39 очень
душно
1008.9 1008.2
21 20.07 ЮЗ 1 9000 м 9/4 500 м
[Cu med, cong Ac As Ci fib]
+27.4 +24.8 86 +39 +39 очень
душно
1008.2 1007.5
00 21.07 СЗ 1 9000 м в посл. час дождь 9/5
[Cb cap Ac As Ci fib]
+27.4 +25.9 92 +41 +42 опасность
перегрева
1009.8 1009.2 +26.1 0.0
03 21.07 ЮЗ 3 6000 м слаб. дождь 9/6
[Cb cap Ac As Ci fib]
+27.4 +26.3 94 +42 +46 опасность
перегрева
1009.6 1009.0 0.0
06 21.07 ЮЗ 2 2000 м дождь 9/6
[Cb cap Ac As Ci fib]
+25.9 +25.2 96 +37 +41 очень
душно
1008.2 1007.6 5
09 21.07 Ю 3 10 км {дождь} 8/4 540 м
[Cu med, cong Ac trans Ci fib]
+29.0 +25.4 81 +43 +43 опасность
перегрева
1007.1 1006.5 0.0
12 21.07 ЮЗ 2 9000 м {дождь} 8/4 540 м
[Cu med, cong As trans Ci fib]
+27.6 +24.7 84 +39 +39 очень
душно
1008.3 1007.6 +29.6 0.0

 

Местоположение метеостанции Баликпапан (Индонезия): широта -1.27 долгота 116.90 высота над уровнем моря 3 м.

В архиве по умолчанию представлена погода в Баликпапане за последнюю неделю. Архивные данные за месяц целиком и за предыдущие месяцы, начиная с января 2011 года, Вы можете получить, выбрав интересующий диапазон дат из раскрывающегося списка и нажав кнопку "Ввод!".


*Определитесь, кто Вы:
робот инопланетянин человек

Внимание! Время в таблицах - всемирное. Для получения местного времени необходимо прибавить поправку, которая равна 8 ч.

Смотрите также архив погоды в соседних городах и на ближайших метеорологических станциях:

Погода в Самаринде (Индонезия) (77 км)
Погода в Муаратевехе (Индонезия) (225 км)
Погода в Котабару (Индонезия) (249 км)
Погода в Маджене (Индонезия) (271 км)
Погода в Палу (Индонезия) (321 км)
Погода в Паоанкарая (Индонезия) (324 км)
Погода в Банджармасине (Индонезия) (339 км)
Погода в Танджунгредепе (Индонезия) (382 км)
Погода в Масамбе (Индонезия) (410 км)
Погода в Посо (Индонезия) (426 км)

Пояснения к столбцам:

Ветер - указаны скорость ветра в м/с - средняя за 10 мин, порывы в срок и между сроками (в фигурных скобках) и направление, откуда дует ветер: С - северный, СВ - северо-восточный, В - восточный, ЮВ - юго-восточный, Ю - южный, ЮЗ - юго-западный, З - западный, СЗ - северо-западный.
Видимость - горизонтальная дальность видимости в метрах или километрах. При видимости от 1 до 10 км при отсутствии осадков обычно наблюдается дымка, при ухудшении видимости до 1 км и менее - туман. В сухую погоду видимость может ухудшаться дымом, пылью или мглою.
Явления - указаны атмосферные явления, наблюдавшиеся в срок или в последний час перед сроком; фигурными скобками обозначены явления, наблюдавшиеся между сроками (за 1-3 часа до срока); квадратными скобками обозначены град или гололедные отложения с указанием их диаметра в мм.
Облачность - указаны через наклонную черту общая и нижняя облачность в баллах и высота нижней границы облаков в метрах; квадратными скобками обозначены формы облаков: Ci - перистые, Cs - перисто-слоистые, Cc - перисто-кучевые, Ac - высококучевые, As - высокослоистые, Sc - слоисто-кучевые, Ns - слоисто-дождевые, Cu - кучевые, Cb - кучево-дождевые. Подробнее классификацию облаков см. в Атласе облаков (PDF).
T - Температура воздуха - температура, измеренная на высоте 2 м над землей.
Td - Температура точки росы - температура, при понижении до которой содержащийся в воздухе водяной пар достигнет насыщения.
f - Относительная влажность воздуха - влажноcть воздуха, измеренная на высоте 2 м над землей.
Te - Эффективная температура - температура, которую ощущает одетый по сезону человек в тени. Характеристика душности погоды. При расчете учитывается влияние влажности воздуха и скорости ветра на теплоощущения человека.
Tes - Эффективная температура на солнце - температура, которую ощущает человек, с поправкой на солнечный нагрев. Характеристика знойности погоды. Зависит от высоты солнца над горизонтом, облачности и скорости ветра. Ночью, в пасмурную погоду, а также при ветре 12 м/с и более поправка равна нулю.
P - Атмосферное давление - приведенное к уровню моря атмосферное давление.
Po - Атмосферное давление - измеренное на уровне метеостанции атмосферное давление.
Tmin - Минимальная температура - минимум температуры воздуха на высоте 2 м над землей.
Tmax - Максимальная температура - максимум температуры воздуха на высоте 2 м над землей.
R - Количество осадков - Количество выпавших осадков за период времени, мм. При наведении курсора мыши на число - период времени, за который выпало указанное количество осадков.
R24 - Количество осадков - Количество выпавших осадков за 24 часа, мм.
S - Снежный покров - Высота снежного покрова, см. При наведении курсора мыши на число - состояние снежного покрова и степень покрытия местности в баллах.